ALAS71 MPEJ-MPMG

Flight info

Callsign ALAS71
Flight time N/A
Altitude 4500
Route MPCM
Aircraft DA40/L-SG/C

Departure

Time 2026-04-23 03:37
Airport Enrique Adolfo Jimenez Airport (MPEJ)

Arrival

Time N/A
Airport Marcos A. Gelabert International Airport (MPMG)
Time Latitude Longitude Altitude Speed Heading
2026-04-23 03:27 9.36021 -79.86508 29 ft 0 kts 287°
2026-04-23 03:35 9.35951 -79.86568 29 ft 30 kts 183°
2026-04-23 03:35 9.35652 -79.86579 30 ft 54 kts 180°
2026-04-23 03:36 9.35358 -79.86602 30 ft 1 kts 323°
2026-04-23 03:36 9.35373 -79.86717 31 ft 27 kts 272°
2026-04-23 03:36 9.35598 -79.86745 30 ft 55 kts
2026-04-23 03:36 9.36069 -79.86740 126 ft 71 kts 359°
2026-04-23 03:37 9.36561 -79.86732 303 ft 73 kts 357°
2026-04-23 03:37 9.37069 -79.86741 451 ft 74 kts 358°
2026-04-23 03:37 9.37597 -79.86736 592 ft 80 kts 359°
2026-04-23 03:37 9.38162 -79.86716 876 ft 79 kts
2026-04-23 03:38 9.38526 -79.87091 924 ft 98 kts 268°
2026-04-23 03:38 9.38495 -79.87789 1002 ft 102 kts 272°
2026-04-23 03:38 9.38225 -79.88403 1193 ft 105 kts 207°
2026-04-23 03:38 9.37431 -79.88510 1076 ft 127 kts 180°
2026-04-23 03:39 9.36535 -79.88554 1027 ft 134 kts 188°
2026-04-23 03:39 9.35631 -79.88610 1060 ft 129 kts 183°
2026-04-23 03:39 9.34737 -79.88637 1020 ft 128 kts 182°
2026-04-23 03:39 9.33894 -79.88646 945 ft 117 kts 182°
2026-04-23 03:40 9.33106 -79.88671 837 ft 108 kts 180°
2026-04-23 03:40 9.32606 -79.88272 812 ft 92 kts 102°
2026-04-23 03:40 9.32564 -79.87626 718 ft 89 kts 94°
2026-04-23 03:40 9.32596 -79.87019 590 ft 87 kts 61°
2026-04-23 03:41 9.33148 -79.86821 421 ft 90 kts
2026-04-23 03:41 9.33704 -79.86817 355 ft 80 kts 358°
2026-04-23 03:41 9.34242 -79.86797 254 ft 77 kts
2026-04-23 03:41 9.34762 -79.86776 91 ft 74 kts
2026-04-23 03:42 9.35217 -79.86759 30 ft 53 kts
2026-04-23 03:42 9.35579 -79.86746 30 ft 66 kts
2026-04-23 03:42 9.36088 -79.86745 156 ft 76 kts
2026-04-23 03:42 9.36613 -79.86727 336 ft 78 kts
2026-04-23 03:43 9.37142 -79.86720 480 ft 78 kts 358°
2026-04-23 03:43 9.37720 -79.86713 596 ft 90 kts 360°
2026-04-23 03:43 9.38318 -79.86739 905 ft 86 kts 343°
2026-04-23 03:43 9.38572 -79.87296 969 ft 103 kts 269°
2026-04-23 03:44 9.38424 -79.88039 1040 ft 113 kts 228°
2026-04-23 03:44 9.37618 -79.88253 1150 ft 128 kts 183°
2026-04-23 03:44 9.36714 -79.88262 1303 ft 134 kts 181°
2026-04-23 03:44 9.35782 -79.88262 1479 ft 135 kts 184°
2026-04-23 03:45 9.34809 -79.88322 1333 ft 147 kts 187°
2026-04-23 03:45 9.33771 -79.88392 1183 ft 155 kts 182°
2026-04-23 03:45 9.32701 -79.88418 1224 ft 153 kts 179°
2026-04-23 03:45 9.31645 -79.88440 1162 ft 149 kts 182°
2026-04-23 03:46 9.30627 -79.88489 1201 ft 140 kts 184°
2026-04-23 03:46 9.29674 -79.88519 1234 ft 138 kts 182°
2026-04-23 03:46 9.28718 -79.88551 1252 ft 137 kts 183°
2026-04-23 03:46 9.27751 -79.88571 1268 ft 138 kts 181°
2026-04-23 03:47 9.26799 -79.88615 1262 ft 142 kts 181°
2026-04-23 03:47 9.25854 -79.88636 1380 ft 133 kts 181°
2026-04-23 03:47 9.24971 -79.88680 1578 ft 122 kts 184°
2026-04-23 03:47 9.24096 -79.88708 1546 ft 131 kts 181°
2026-04-23 03:48 9.23178 -79.88729 1542 ft 133 kts 182°
2026-04-23 03:48 9.22259 -79.88747 1577 ft 132 kts 181°
2026-04-23 03:48 9.21334 -79.88765 1596 ft 134 kts 182°
2026-04-23 03:48 9.20411 -79.88773 1623 ft 132 kts 180°
2026-04-23 03:49 9.19478 -79.88794 1650 ft 135 kts 182°
2026-04-23 03:49 9.18544 -79.88809 1672 ft 134 kts 181°
2026-04-23 03:49 9.17605 -79.88827 1700 ft 135 kts 181°
2026-04-23 03:49 9.16655 -79.88851 1722 ft 137 kts 181°
2026-04-23 03:50 9.15693 -79.88875 1755 ft 140 kts 181°
2026-04-23 03:50 9.14721 -79.88905 1775 ft 139 kts 181°
2026-04-23 03:50 9.13750 -79.88930 1801 ft 141 kts 181°
2026-04-23 03:50 9.12786 -79.88954 1831 ft 140 kts 181°
2026-04-23 03:51 9.11785 -79.88984 1848 ft 145 kts 180°
2026-04-23 03:51 9.10727 -79.89012 1877 ft 155 kts 183°
2026-04-23 03:51 9.09674 -79.89050 1925 ft 151 kts 182°
2026-04-23 03:51 9.08616 -79.89075 1935 ft 149 kts 181°
2026-04-23 03:52 9.07599 -79.89096 1962 ft 145 kts 181°
2026-04-23 03:52 9.06592 -79.89112 1973 ft 142 kts 181°
2026-04-23 03:52 9.05610 -79.89131 1998 ft 141 kts 181°
2026-04-23 03:52 9.04631 -79.89149 2021 ft 139 kts 181°
2026-04-23 03:53 9.03664 -79.89173 2044 ft 139 kts 182°
2026-04-23 03:53 9.02695 -79.89199 2071 ft 140 kts 182°
2026-04-23 03:53 9.01723 -79.89217 2098 ft 140 kts 181°
2026-04-23 03:53 9.00744 -79.89241 2119 ft 141 kts 182°
2026-04-23 03:54 8.99764 -79.89260 2144 ft 141 kts 181°
2026-04-23 03:54 8.98781 -79.89283 2167 ft 142 kts 182°
2026-04-23 03:54 8.97791 -79.89303 2197 ft 143 kts 181°
2026-04-23 03:54 8.96806 -79.89329 2232 ft 141 kts 182°
2026-04-23 03:55 8.95814 -79.89355 2243 ft 142 kts 181°
2026-04-23 03:55 8.94827 -79.89382 2265 ft 141 kts 181°
2026-04-23 03:55 8.93848 -79.89407 2290 ft 141 kts 181°
2026-04-23 03:55 8.92870 -79.89432 2312 ft 141 kts 181°
2026-04-23 03:56 8.91889 -79.89464 2334 ft 141 kts 182°
2026-04-23 03:56 8.90917 -79.89495 2359 ft 139 kts 182°
2026-04-23 03:56 8.89954 -79.89531 2389 ft 141 kts 182°
2026-04-23 03:56 8.88980 -79.89562 2413 ft 140 kts 181°
2026-04-23 03:57 8.88322 -79.89579 2429 ft 141 kts 181°
2026-04-23 03:58 8.84197 -79.89685 2540 ft 142 kts 181°
2026-04-23 03:58 8.83198 -79.89717 2560 ft 144 kts 181°
2026-04-23 03:58 8.82194 -79.89761 2589 ft 145 kts 182°
2026-04-23 03:58 8.81175 -79.89795 2572 ft 149 kts 181°
2026-04-23 03:59 8.80108 -79.89837 2454 ft 158 kts 182°
2026-04-23 03:59 8.78973 -79.89883 2224 ft 168 kts 181°
2026-04-23 03:59 8.77800 -79.89915 1981 ft 169 kts 182°
2026-04-23 03:59 8.76629 -79.89855 1741 ft 169 kts 176°
2026-04-23 04:00 8.75476 -79.89731 1615 ft 160 kts 171°
2026-04-23 04:00 8.74408 -79.89443 1451 ft 164 kts 161°
2026-04-23 04:00 8.73356 -79.89054 1307 ft 162 kts 162°
2026-04-23 04:00 8.72270 -79.88700 1184 ft 161 kts 164°
2026-04-23 04:01 8.71198 -79.88415 1028 ft 160 kts 167°
2026-04-23 04:01 8.70146 -79.88137 907 ft 155 kts 164°
2026-04-23 04:01 8.69079 -79.87906 759 ft 154 kts 171°
2026-04-23 04:01 8.68022 -79.87784 742 ft 149 kts 173°
2026-04-23 04:02 8.66983 -79.87743 652 ft 152 kts 183°
2026-04-23 04:02 8.65894 -79.87857 406 ft 160 kts 192°
2026-04-23 04:02 8.64864 -79.88114 470 ft 150 kts 195°
2026-04-23 04:02 8.63849 -79.88403 306 ft 155 kts 196°
2026-04-23 04:03 8.62813 -79.88508 350 ft 149 kts 190°
2026-04-23 04:03 8.61773 -79.88561 277 ft 148 kts 178°
2026-04-23 04:03 8.60759 -79.88539 329 ft 142 kts 180°
2026-04-23 04:03 8.59824 -79.88669 346 ft 126 kts 205°
2026-04-23 04:04 8.59099 -79.88955 162 ft 102 kts 185°
2026-04-23 04:04 8.58496 -79.88998 131 ft 69 kts 187°
2026-04-23 04:04 8.58264 -79.89017 131 ft 0 kts 241°
2026-04-23 04:04 8.58375 -79.89039 131 ft 40 kts
2026-04-23 04:05 8.58666 -79.88998 131 ft 21 kts 337°
2026-04-23 04:05 8.58694 -79.89012 132 ft 3 kts 65°
2026-04-23 04:05 8.58694 -79.89004 132 ft 0 kts 94°